Regional Weather Roundup
Issued by NWS

Home | Current Version | Previous Version | Text Only | Print | Product List | Glossary Off
Versions: 1 2 3 4 5 6 7 8 9 10 11 12 13 14 15 16 17 18 19 20 21 22 23 24 25 26 27 28 29 30 31 32 33 34 35 36 37 38 39 40 41 42 43 44 45 46 47 48 49 50

498
ASUS43 KMPX 070701
RWRMN
WEATHER ROUNDUP FOR MINNESOTA
NATIONAL WEATHER SERVICE TWIN CITIES/CHANHASSEN MN
100 AM CST WED DEC 07 2016


NOTE: "FAIR" INDICATES FEW OR NO CLOUDS BELOW 12,000 FEET WITH NO
SIGNIFICANT WEATHER AND/OR OBSTRUCTIONS TO VISIBILITY. N/A MEANS
CURRENT SKY AND/OR WEATHER CONDITIONS ARE NOT AVAILABLE.

MNZ060>063-068>070-070800-
   Twin Cities Metro

CITY           SKY/WX    TMP DP  RH WIND       PRES   REMARKS
CRYSTAL        CLOUDY    19   9  65 W17G28    29.85R WCI   4
EDEN PRAIRIE   CLOUDY    18   9  68 W14       29.87R WCI   4
$$
MNZ001>005-007-008-013>017-022>024-027-028-070800-
   Northwest Minnesota

CITY           SKY/WX    TMP DP  RH WIND       PRES   REMARKS
THIEF RVR FALL LGT SNOW  18  14  86 W24G31    29.66R FOG     WCI   0
PARK RAPIDS    LGT SNOW  15   8  73 W22       29.68R VSB 3/4 WCI  -3
$$
MNZ006-009>011-018-025>026-070800-
   North Central Minnesota

CITY           SKY/WX    TMP DP  RH WIND       PRES   REMARKS
BAUDETTE       CLOUDY    24  20  84 W9        29.49R WCI  14
WASKISH        FLURRIES  25  21  86 W17G26    29.52R WCI  11
BIG FORK       LGT SNOW  21  18  86 SW15G22   29.52R WCI   8
LONGVILLE      LGT SNOW  18  12  79 W12G20    29.63R WCI   5
CRANE LAKE     LGT SNOW  19  18  93 SW3       29.51R
ORR            LGT SNOW  19  16  86 CALM      29.47R
COOK           FLURRIES  21  19  93 W6        29.50R WCI  14
$$
MNZ012-019>021-037-070800-
   Northeast Minnesota

CITY           SKY/WX    TMP DP  RH WIND       PRES   REMARKS
HIBBING        LGT SNOW  20  16  84 SW7G22    29.53R FOG     WCI  11
GRAND MARAIS     N/A     26  22  84 W13       29.52R WCI  15
$$
MNZ029>031-032-039>041-046>048-054>057-064-070800-
   West Central Minnesota

CITY           SKY/WX    TMP DP  RH WIND       PRES   REMARKS
WHEATON        FLURRIES  14  10  85 W22G30    29.93R WCI  -4
ALEXANDRIA     LGT SNOW  12   9  87 W26G33    29.83R FOG     WCI  -8
ELBOW LAKE     LGT SNOW  11   9  89 NW23G30   29.87R WCI  -8
WADENA         LGT SNOW  12   9  85 W13G24    29.75R WCI  -3
APPLETON       CLOUDY    16   7  67 W21G32    29.93R WCI  -2
WILLMAR        FLURRIES  16  10  79 W25G33    29.91R WCI  -3
$$
MNZ033>034-036-042>043-049>051-058-059-070800-
   Central Minnesota

CITY           SKY/WX    TMP DP  RH WIND       PRES   REMARKS
BRAINERD       LGT SNOW  16  10  77 W23G29    29.72R WCI  -2
$$
MNZ037-044-045-052-053-070800-
   East Central Minnesota

CITY           SKY/WX    TMP DP  RH WIND       PRES   REMARKS
MORA           FLURRIES  19  12  73 W15G26    29.75S WCI   5
CAMBRIDGE      FLURRIES  19  10  68 W14G26    29.77S WCI   6
RUSH CITY      CLOUDY    18  12  79 W12G21    29.77S WCI   5
CLOQUET        FLURRIES  19  12  73 SW15G26   29.60R WCI   5
$$
MNZ071>073-080-081-089-090-097-098-070800-
   Southwest Minnesota

CITY           SKY/WX    TMP DP  RH WIND       PRES   REMARKS
JACKSON        CLEAR     12   5  73 W20G28    29.97R WCI  -6
SLAYTON        PTCLDY    10   5  82 W25G33    29.96S WCI -11
$$
MNZ065>067-074>077-082>085-091>093-070800-
   South Central Minnesota

CITY           SKY/WX    TMP DP  RH WIND       PRES   REMARKS
ST JAMES       CLEAR     14   9  79 W15       29.98S WCI  -1
GLENCOE        FLURRIES  17  13  84 W12G23    29.90S WCI   4
OWATONNA       CLOUDY    16   9  73 W17G29    29.92R WCI   0
$$
MNZ078>079-086>088-094>096-070800-
   Southeast Minnesota

CITY           SKY/WX    TMP DP  RH WIND       PRES   REMARKS
RED WING       CLOUDY    19   9  63 W20G25    29.88R WCI   4
AUSTIN         FLURRIES  16   9  73 W17G23    29.93S WCI   0
$$
ABBREVIATIONS USED IN REMARKS
   TC - TEMPERATURES IN CELSIUS
  WCI - WIND CHILL INDEX
   HX - HEAT INDEX
  VSB - VISIBILITY
$$




USA.gov is the U.S. government's official web portal to all federal, state and local government web resources and services.